This is the latest recevied weather packets stored in our database for station/object NI4CE-11. If no packets are shown the sender has not sent any weather packets the latest 10 day(s).
| Time | Temp. | Humidity | Pressure | Rain* | Wind** | Luminosity | Snow |
|---|---|---|---|---|---|---|---|
| 1777380628 | 22.22° C | 100% | 1020.1 hPa | 0 mm | - | - | - |
| 1777380328 | 21.67° C | 100% | 1020.3 hPa | 0 mm | - | - | - |
| 1777380028 | 21.67° C | 100% | 1020.1 hPa | 0 mm | - | - | - |
| 1777379728 | 21.67° C | 100% | 1020.1 hPa | 0 mm | - | - | - |
| 1777379657 | 21.67° C | 100% | 1019.8 hPa | 0 mm | - | - | - |
| 1777379428 | 22.22° C | 100% | 1020 hPa | 0 mm | - | - | - |
| 1777379128 | 22.22° C | 100% | 1019.9 hPa | 0 mm | - | - | - |
| 1777378828 | 21.67° C | 100% | 1019.8 hPa | 0 mm | - | - | - |
| 1777378573 | 21.11° C | 100% | 1019.8 hPa | 0 mm | - | - | - |
| 1777378528 | 21.11° C | 100% | 1019.8 hPa | 0 mm | - | - | - |
| 1777378413 | 20° C | 100% | 1019.6 hPa | 0 mm | - | - | - |
| 1777378228 | 21.67° C | 100% | 1019.8 hPa | 0 mm | - | - | - |
| 1777377928 | 21.11° C | 100% | 1019.7 hPa | 0 mm | - | - | - |
| 1777377628 | 20.56° C | 100% | 1019.7 hPa | 0 mm | - | - | - |
| 1777377328 | 20.56° C | 100% | 1019.6 hPa | 0 mm | - | - | - |
| 1777377062 | 20° C | 100% | 1019.6 hPa | 0 mm | - | - | - |
| 1777377028 | 20° C | 100% | 1019.6 hPa | 0 mm | - | - | - |
| 1777376728 | 20° C | 100% | 1019.5 hPa | 0 mm | - | - | - |
| 1777376428 | 20° C | 100% | 1019.4 hPa | 0 mm | - | - | - |
| 1777376128 | 20° C | 100% | 1019.4 hPa | 0 mm | - | - | - |
| 1777375828 | 20° C | 100% | 1019.4 hPa | 0 mm | - | - | - |
| 1777375528 | 20° C | 100% | 1019.3 hPa | 0 mm | - | - | - |
| 1777375228 | 20.56° C | 100% | 1019.3 hPa | 0 mm | - | - | - |
| 1777374928 | 19.44° C | 100% | 1019.2 hPa | 0 mm | - | - | - |
| 1777374628 | 21.11° C | 100% | 1019.1 hPa | 0 mm | - | - | - |
* Rain latest hour (hover to see other rain measurements)
** Current wind speed in m/s (hover to see current wind gust speed)